OSCAR 11 (UOSAT 2)

Satellite information

Favourite Embed

Satellite Type and Status

PAYLOADIN ORBIT

Key statistics

Satellite OSCAR 11 (UOSAT 2) at a glance.

Uptime

15214

Days in orbit

Revolutions

≈ 14.9

Per day

Orbit

SSO

Sun Synchronous Orbit

Inclination

97.8

Latest

Satellite identification and parameters

Extended collection of information and parameters for OSCAR 11 (UOSAT 2).

Object identification

Identified? True

Debris? False

Object name: OSCAR 11 (UOSAT 2)

International designator: 1984-021B

Object number (NORAD): 14781

Object ID (CCSDS): 14781

Country: UNITED KINGDOM (UK)

Current information (Y/N): Y

RCS size: MEDIUM

Orbital parameters

Period: 96.651 minutes

Inclination: 97.7739 deg

SMA: 6976.391 km

Apoapsis: 602.632 km

Periapsis: 593.881 km

RAAN: 262.6449 deg

Eccentricy: 0.00062714

Argument of periapsis: 232.3673 deg

Mean anomaly: 127.6976 deg

Mean motion: 14.89897889 rev/day

Mean motion (dot): 0.00002625 rev/day2

B* drag term: 0.00027852072 1/REarth

Two-line elements (TLE)

Creation date: Oct. 26, 2025, 2:54 a.m.

Reference frame: TEME

Reference center: EARTH

Epoch: Oct. 25, 2025, 8:16 p.m. UTC

TLE line 0: 0 OSCAR 11 (UOSAT 2)

TLE line 1: 1 14781U 84021B 25298.84497375 .00002625 00000-0 27852-3 0 9991

TLE line 2: 2 14781 97.7739 262.6449 0006271 232.3673 127.6976 14.89897889222229

Live tracking on map

Real-time ground track for satellite OSCAR 11 (UOSAT 2).

In-orbit conjunctions

There are no conjunctions computed for OSCAR 11 (UOSAT 2), at the moment. Check back to stay up to date, as we update our databases every day.

Go to all conjunctions

Associated space launch

Earth resources monitoring satellite

OSCAR 11 (UOSAT 2) was lifted into orbit during the mission ‘Delta 3920 | Landsat 5’, on board a Delta 3920 space rocket.

The launch took place on March 1, 1984, 5:59 p.m. from Space Launch Complex 2W.

For more information about the launch, click the button.

Launch to space Delta 3920 | Landsat 5
Delta 3920 | Landsat 5

Agency: N/A

Status: Launch Successful

Launch date: March 1, 1984, 5:59 p.m. UTC

Rocket: Delta 3920

Launch pad: Space Launch Complex 2W

Location: Vandenberg SFB, CA, USA

...

Latest news about this satellite

There are no fresh news available about this satellite. Check back as we update our databases every day.


Newsletter sign-up

Weekly statistics, charts and insights to help you stay on top of the space industry.